Location: Unspecified
(0.0000°N, 0.0000°E)
Time: 23:37:34
(UTC+00:00)

Vanguard 3 - Visible Passes

Search period start: 17 September 2014 00:00
Search period end: 27 September 2014 00:00
Orbit: 507 x 3279 km, 33.4° (Epoch: 16 September)

Date Brightness Start Highest point End Pass type
(mag) Time Alt. Az. Time Alt. Az. Time Alt. Az.
17 Sep 9.2 05:12:03 10° S 05:15:52 22° SE 05:21:13 10° E visible
17 Sep 9.3 18:47:05 10° WNW 19:04:38 78° SW 19:13:35 16° SE visible
17 Sep 10.1 21:09:42 10° W 21:17:55 20° SW 21:18:22 20° SW visible
18 Sep 9.7 19:51:16 10° WNW 20:05:22 40° SW 20:11:01 23° SSE visible
19 Sep 8.8 05:00:12 10° SSW 05:04:05 29° SE 05:09:44 10° E visible
19 Sep 9.7 18:34:14 10° WNW 18:52:14 67° SW 19:03:00 10° SE visible
19 Sep 10.3 20:58:24 10° WSW 21:05:59 18° SW 21:08:26 16° SSW visible
20 Sep 10.1 19:39:05 10° W 19:53:06 35° SW 20:01:03 14° SSE visible
21 Sep 8.0 04:48:32 10° SSW 04:52:22 39° SE 04:58:05 10° ENE visible
21 Sep 10.0 18:21:33 10° WNW 18:39:45 58° SW 18:51:11 10° SE visible
21 Sep 10.5 20:47:22 10° WSW 20:54:07 15° SW 20:58:25 12° S visible
22 Sep 9.2 03:41:05 13° SE 03:41:05 13° SE 03:42:59 10° ESE visible
22 Sep 10.4 19:27:05 10° W 19:40:50 30° SW 19:50:04 10° SSE visible
23 Sep 7.1 04:38:26 24° SW 04:40:45 59° SE 04:46:17 10° ENE visible
23 Sep 10.4 18:09:02 10° WNW 18:27:11 50° SW 18:39:14 10° SE visible
23 Sep 10.6 20:36:37 10° WSW 20:42:21 13° SW 20:47:03 10° S visible
24 Sep 9.2 03:31:01 15° ESE 03:31:01 15° ESE 03:32:25 10° E visible
24 Sep 10.5 19:15:17 10° W 19:28:38 27° SW 19:38:01 10° SSE visible
25 Sep 6.4 04:28:23 56° WSW 04:29:13 88° NW 04:34:23 10° NE visible
25 Sep 10.6 17:56:43 10° WNW 18:14:37 44° SW 18:27:11 10° SSE visible
25 Sep 10.7 20:26:11 10° SW 20:30:42 12° SSW 20:34:36 10° SSW visible
26 Sep 9.5 03:20:58 12° E 03:20:58 12° E 03:21:24 10° E visible
26 Sep 8.3 05:26:16 10° W 05:29:42 23° NNW 05:34:23 10° NNE visible
26 Sep 10.7 19:03:44 10° W 19:16:30 24° SW 19:25:55 10° SSE visible
